Jaffrey, NH

7:38 AM EDT on August 28, 2016 (GMT -0400)
Jaffrey Airport-Silver Ranch

Weather History for KAFN - May, 2013

Change the Weather History Date:

Sunday, May 19, 2013

  Actual Average Record
Temperature  
Mean Temperature 54 °F -  
Max Temperature 68 °F 62 °F 82 °F (2012)
Min Temperature 42 °F 41 °F 30 °F (2002)
Degree Days  
Heating Degree Days 11    
Growing Degree Days 4 (Base 50)    
Moisture  
Dew Point 48 °F    
Average Humidity 81    
Maximum Humidity 94    
Minimum Humidity 50    
Precipitation  
Precipitation 0.05 in - - ()
Sea Level Pressure  
Sea Level Pressure 30.30 in    
Wind  
Wind Speed 3 mph (SSW)    
Max Wind Speed 10 mph    
Max Gust Speed 16 mph    
Visibility 9 miles    
Events Rain    
Averages and records for this station are not official NWS values.
T = Trace of Precipitation, MM = Missing Value Source: NWS Daily Summary

Daily Weather History Graph

Daily Weather History Graph

Search for Another Location

Airport or City:

Trip Planner

Search our weather history database for the weather conditions in past years. The results will help you decide how hot, cold, wet, or windy it might be!

Date:

Astronomy

May. 19, 2013 Rise Set
Actual Time 5:21 AM EDT 8:08 PM EDT
Civil Twilight 4:48 AM EDT 8:41 PM EDT
Nautical Twilight 4:06 AM EDT 9:23 PM EDT
Astronomical Twilight 3:18 AM EDT 10:11 PM EDT
Moon 2:01 PM EDT (5/19) 1:52 AM EDT (5/19)
Length of Visible Light 15h 53m
Length of Day
14h 47m
Waxing Gibbous, 65% of the Moon is Illuminated
May 19
Waxing Gibbous
May 25
Full
May 31
Last Quarter
Jun 8
New
Jun 16
First Quarter

Hourly Weather History & Observations

Time (EDT) Temp. Dew Point Humidity Pressure Visibility Wind Dir Wind Speed Gust Speed Precip Events Conditions
12:52 AM 51.1 °F 44.1 °F 77% 30.31 in 10.0 mi Calm Calm - N/A   Clear
1:52 AM 46.9 °F 44.1 °F 90% 30.31 in 10.0 mi Calm Calm - N/A   Clear
2:52 AM 45.0 °F 43.0 °F 93% 30.32 in 10.0 mi Calm Calm - N/A   Clear
3:52 AM 44.1 °F 42.1 °F 93% 30.32 in 10.0 mi Calm Calm - N/A   Clear
4:52 AM 43.0 °F 41.0 °F 93% 30.32 in 10.0 mi Calm Calm - N/A   Clear
5:52 AM 42.1 °F 39.9 °F 92% 30.34 in 10.0 mi Calm Calm - N/A   Clear
6:52 AM 45.0 °F 42.1 °F 90% 30.35 in 10.0 mi Calm Calm - N/A   Clear
7:52 AM 51.1 °F 45.0 °F 80% 30.35 in 10.0 mi Calm Calm - N/A   Clear
8:52 AM 57.9 °F 48.0 °F 70% 30.35 in 10.0 mi SSE 3.5 mph - N/A   Partly Cloudy
9:52 AM 63.0 °F 48.9 °F 60% 30.35 in 10.0 mi South 8.1 mph - N/A   Scattered Clouds
10:52 AM 63.0 °F 48.0 °F 58% 30.35 in 10.0 mi South 5.8 mph - N/A   Partly Cloudy
11:52 AM 64.9 °F 46.9 °F 52% 30.34 in 10.0 mi SW 9.2 mph - N/A   Partly Cloudy
12:52 PM 66.0 °F 46.9 °F 50% 30.32 in 10.0 mi SSW 9.2 mph 16.1 mph N/A   Overcast
1:52 PM 66.0 °F 46.9 °F 50% 30.30 in 10.0 mi SSW 10.4 mph - N/A   Mostly Cloudy
2:52 PM 63.0 °F 48.9 °F 60% 30.31 in 10.0 mi SW 8.1 mph - N/A   Overcast
3:52 PM 62.1 °F 46.9 °F 58% 30.30 in 10.0 mi Variable 6.9 mph - N/A   Overcast
4:52 PM 57.9 °F 50.0 °F 75% 30.31 in 10.0 mi SSW 4.6 mph - N/A   Overcast
5:52 PM 55.9 °F 53.1 °F 90% 30.31 in 7.0 mi Variable 3.5 mph - 0.01 in Rain Light Rain
5:59 PM 55.4 °F 53.6 °F 94% 30.27 in 9.0 mi SSW 4.6 mph - 0.01 in Rain Light Rain
6:10 PM 55.4 °F 53.6 °F 94% 30.27 in 10.0 mi South 4.6 mph - 0.01 in Rain Light Rain
6:29 PM 55.4 °F 53.6 °F 94% 30.27 in 10.0 mi SSW 4.6 mph - 0.01 in   Overcast
6:52 PM 55.9 °F 53.1 °F 90% 30.29 in 10.0 mi South 6.9 mph - 0.01 in   Overcast
7:52 PM 55.0 °F 52.0 °F 89% 30.29 in 10.0 mi South 6.9 mph - 0.01 in   Overcast
8:02 PM 55.4 °F 51.8 °F 88% 30.26 in 10.0 mi South 6.9 mph - N/A   Overcast
8:21 PM 53.6 °F 51.8 °F 94% 30.25 in 5.0 mi South 6.9 mph - 0.00 in Rain Light Rain
8:52 PM 54.0 °F 52.0 °F 93% 30.27 in 4.0 mi South 9.2 mph - 0.01 in   Overcast
9:52 PM 54.0 °F 52.0 °F 93% 30.26 in 10.0 mi Variable 6.9 mph - 0.00 in Rain Light Rain
10:52 PM 54.0 °F 52.0 °F 93% 30.24 in 6.0 mi South 8.1 mph - 0.01 in   Overcast
11:52 PM 54.0 °F 52.0 °F 93% 30.22 in 6.0 mi South 5.8 mph - N/A   Overcast